Location: ASU Dark Sky Observatory
(36.2504°N, 81.4125°W)
Time: 00:50:13
(UTC-04:00)

Amateur Radio Satellites - All Passes

Search period start: 24 July 2017 00:20
Search period end: 25 July 2017 00:20
Location: ASU Dark Sky Observatory, 36.2504°N, 81.4125°W

Satellite Date Start Highest point End Downlink Frequencies (MHz)
Time Altitude Azimuth
RS-15 24 Jul 00:21:19 00:31:49 32° 39° (NE) 00:41:49 29.354- 29.394
PRISM 24 Jul 00:23:16 00:26:36 23° 291° (WNW) 00:29:55 437.425
ESTCUBE 1 24 Jul 00:24:31 00:28:57 65° 259° (WSW) 00:33:24 437.505/2401.250
POLYITAN 1 24 Jul 00:39:20 00:42:54 27° 96° (E) 00:46:27 437.675
DUCHIFAT 1 24 Jul 00:39:23 00:42:35 21° 95° (E) 00:45:45 145.980
SPROUT 24 Jul 00:42:43 00:46:49 46° 74° (ENE) 00:50:56 437.525
TIGRISAT 24 Jul 00:44:14 00:46:25 14° 294° (WNW) 00:48:34 435.000
AIST 2D 24 Jul 00:50:02 00:53:31 74° 283° (WNW) 00:57:00 435.315
QB50P2 24 Jul 00:51:56 00:55:57 42° 99° (E) 00:59:56 145.880/145.840
EO-79 24 Jul 01:04:25 01:08:34 55° 100° (E) 01:12:39 145.935-145.965
NANOSAT C BR1 24 Jul 01:05:27 01:09:32 50° 100° (E) 01:13:35 145.865
BUGSAT 1 24 Jul 01:14:54 01:17:03 14° 93° (E) 01:19:10 437.445
VELOX 1 24 Jul 01:16:28 01:20:53 82° 260° (W) 01:25:19 145.980
50 SAT 24 Jul 01:22:35 01:25:48 42° 74° (ENE) 01:29:02 437.505
DX 1 24 Jul 01:27:00 01:31:00 37° 71° (ENE) 01:35:01 434.975-435.025
M-CUBED/EXP-1 PRIME 24 Jul 01:29:44 01:32:06 14° 299° (WNW) 01:34:28 437.505
JUGNU 24 Jul 01:32:09 01:35:30 15° 176° (S) 01:38:52 437.505
Oscar 19 24 Jul 01:59:16 02:03:05 21° 94° (E) 02:06:53 437.125/150
UKube-1 24 Jul 02:12:11 02:16:29 83° 76° (ENE) 02:20:50 .
O/OREOS (USA 219) 24 Jul 02:13:08 02:17:35 63° 68° (ENE) 02:22:03 437.305
Gurwin Techsat 1B 24 Jul 02:14:19 02:17:56 18° 93° (E) 02:21:32 435.225
DUCHIFAT 1 24 Jul 02:14:41 02:18:11 26° 290° (WNW) 02:21:39 145.980
POLYITAN 1 24 Jul 02:15:20 02:18:30 21° 291° (WNW) 02:21:39 437.675
SPROUT 24 Jul 02:20:58 02:22:55 13° 268° (W) 02:24:52 437.525
QB50P2 24 Jul 02:29:08 02:31:20 14° 294° (WNW) 02:33:31 145.880/145.840
RS-15 24 Jul 02:33:39 02:45:42 81° 244° (WSW) 02:57:03 29.354- 29.394
EO-79 24 Jul 02:42:36 02:43:47 11° 295° (WNW) 02:44:59 145.935-145.965
NANOSAT C BR1 24 Jul 02:43:10 02:44:45 12° 295° (WNW) 02:46:21 145.865
BUGSAT 1 24 Jul 02:48:45 02:52:32 37° 288° (WNW) 02:56:16 437.445
MOZHAYETS 4 24 Jul 02:51:51 02:54:15 14° 66° (ENE) 02:56:40
DX 1 24 Jul 03:04:31 03:07:16 16° 266° (W) 03:10:03 434.975-435.025
BEESAT 24 Jul 03:14:09 03:18:31 37° 71° (ENE) 03:22:53 436.000
JUGNU 24 Jul 03:20:34 03:23:44 15° 186° (S) 03:26:54 437.505
ITUPSAT 1 24 Jul 03:26:12 03:30:47 48° 72° (ENE) 03:35:24 437.325
Tancredo 1 24 Jul 03:31:35 03:34:09 26° 34° (NE) 03:36:43 437.200
nSIGHT-1 24 Jul 03:33:44 03:35:37 14° 26° (NNE) 03:37:30 .
Oscar 19 24 Jul 03:37:41 03:42:30 41° 289° (WNW) 03:47:19 437.125/150
ITAMSAT 1 24 Jul 03:48:28 03:51:31 16° 93° (E) 03:54:33 435.822/435.867
Gurwin Techsat 1B 24 Jul 03:52:59 03:58:05 48° 288° (WNW) 04:03:10 435.225
SRMSAT 24 Jul 04:18:57 04:22:14 15° 176° (S) 04:25:30 437.500
ISS 24 Jul 04:25:52 04:28:54 34° 36° (NE) 04:31:55 437.550
MOZHAYETS 4 24 Jul 04:26:31 04:30:57 50° 260° (W) 04:35:25
AO-7 24 Jul 04:35:57 04:44:04 52° 102° (ESE) 04:52:05 .
RS-15 24 Jul 04:49:43 04:56:02 16° 263° (W) 05:02:13 29.354- 29.394
BEESAT 24 Jul 04:52:52 04:56:21 20° 265° (W) 04:59:50 436.000
CUBESAT XI-V 24 Jul 04:57:29 05:02:00 61° 75° (ENE) 05:06:32 437.345
PCSat 24 Jul 05:04:10 05:08:32 25° 107° (ESE) 05:12:55 145.827
ITUPSAT 1 24 Jul 05:06:04 05:08:49 15° 267° (W) 05:11:35 437.325
Tancredo 1 24 Jul 05:07:08 05:09:27 21° 229° (SW) 05:11:48 437.200
nSIGHT-1 24 Jul 05:09:08 05:12:21 75° 224° (SW) 05:15:34 .
KKS-1 24 Jul 05:16:41 05:21:02 55° 74° (ENE) 05:25:26 437.445
ITAMSAT 1 24 Jul 05:26:12 05:31:16 54° 287° (WNW) 05:36:18 435.822/435.867
STARS 24 Jul 05:50:01 05:54:19 52° 74° (ENE) 05:58:38 437.465
YUBILEINY 24 Jul 05:54:37 06:02:06 30° 72° (ENE) 06:09:30 435.215
ISS 24 Jul 06:02:48 06:05:11 19° 231° (SW) 06:07:35 437.550
SRMSAT 24 Jul 06:07:31 06:10:36 14° 186° (S) 06:13:41 437.500
SO-50 24 Jul 06:11:42 06:14:38 17° 109° (ESE) 06:17:32 436.795
AO-7 24 Jul 06:29:15 06:36:27 34° 299° (WNW) 06:43:38 .
DOVE 4 24 Jul 06:32:07 06:37:11 47° 98° (E) 06:42:03 437.250
XW-2D 24 Jul 06:37:46 06:40:02 15° 94° (E) 06:42:18 145.860 - 145.880
CUBESAT XI-V 24 Jul 06:38:39 06:39:43 11° 269° (W) 06:40:47 437.345
PCSat 24 Jul 06:46:38 06:51:40 39° 303° (WNW) 06:56:45 145.827
XW-2B 24 Jul 06:47:21 06:50:07 19° 95° (E) 06:52:53 145.730 - 145.750
KKS-1 24 Jul 06:56:23 06:57:53 11° 268° (W) 06:59:24 437.445
XW-2C 24 Jul 07:04:05 07:07:30 32° 98° (E) 07:10:54 145.795 - 145.815
CUTE-I 24 Jul 07:05:13 07:09:57 31° 97° (E) 07:14:38 437.470
NUDT-PHONESAT 24 Jul 07:16:36 07:19:59 33° 98° (E) 07:23:20 437.300
STRAND 1 24 Jul 07:17:40 07:22:01 29° 68° (ENE) 07:26:23 437.568
LilacSat-2 24 Jul 07:25:48 07:29:35 71° 101° (E) 07:33:21 437.200
KAITUO 1B 24 Jul 07:29:02 07:32:40 53° 100° (E) 07:36:19 145.475/437.950
STARS 24 Jul 07:29:12 07:30:55 12° 268° (W) 07:32:37 437.465
XW-2F 24 Jul 07:42:38 07:46:23 76° 283° (WNW) 07:50:08 145.980 - 146.000
SO-50 24 Jul 07:50:23 07:54:43 43° 304° (NW) 07:59:03 436.795
YUBILEINY 24 Jul 07:50:48 07:59:10 53° 270° (W) 08:07:30 435.215
CUBEBUG 2 24 Jul 08:03:42 08:05:24 12° 91° (E) 08:07:05 437.445
DOVE 4 24 Jul 08:10:44 08:14:25 20° 294° (WNW) 08:18:00 437.250
XW-2D 24 Jul 08:10:58 08:14:14 28° 287° (WNW) 08:17:30 145.860 - 145.880
FO-29 24 Jul 08:19:37 08:22:43 13° 55° (NE) 08:25:51 435.910
XW-2B 24 Jul 08:21:14 08:24:13 23° 289° (WNW) 08:27:12 145.730 - 145.750
CUTE 1.7 + AOD 2 24 Jul 08:33:37 08:37:50 63° 101° (E) 08:42:03 437.475
XW-2C 24 Jul 08:39:23 08:41:22 14° 292° (WNW) 08:43:23 145.795 - 145.815
CUTE-I 24 Jul 08:45:17 08:49:51 29° 292° (WNW) 08:54:23 437.470
HO-68 24 Jul 08:46:03 08:53:14 74° 104° (ESE) 09:00:21 435.675
SEEDS 24 Jul 08:48:01 08:52:10 56° 100° (E) 08:56:19 437.485
XW-2A 24 Jul 08:51:48 08:55:06 63° 101° (E) 08:58:24 145.665 - 145.685
NUDT-PHONESAT 24 Jul 08:51:49 08:53:31 13° 292° (WNW) 08:55:14 437.300
STRAND 1 24 Jul 08:56:36 09:01:05 30° 263° (W) 09:05:35 437.568
UWE-3 24 Jul 09:02:14 09:06:05 35° 98° (E) 09:09:51 435.000/436.395/437.385
ZACube-1 24 Jul 09:18:34 09:22:10 28° 97° (E) 09:25:45 437.345
UNISAT 6 24 Jul 09:20:03 09:21:37 12° 65° (ENE) 09:23:11 437.425
AAUSAT CUBESAT 2 24 Jul 09:34:49 09:39:01 89° 278° (W) 09:43:12 437.432
PRISM 24 Jul 09:36:13 09:38:01 13° 65° (ENE) 09:39:49 437.425
CUBEBUG 2 24 Jul 09:38:13 09:42:16 44° 287° (WNW) 09:46:13 437.445
Oscar 11 24 Jul 09:46:19 09:50:25 41° 99° (E) 09:54:29 .
FO-29 24 Jul 09:58:48 10:06:13 68° 73° (ENE) 10:14:03 435.910
AO-73 24 Jul 09:59:00 10:03:09 82° 102° (ESE) 10:07:16 145.935
TIGRISAT 24 Jul 10:01:47 10:05:51 30° 71° (ENE) 10:09:52 435.000
SEEDS 24 Jul 10:26:12 10:27:20 11° 295° (WNW) 10:28:28 437.485
HO-68 24 Jul 10:35:21 10:40:11 20° 301° (WNW) 10:45:01 435.675
M-CUBED/EXP-1 PRIME 24 Jul 10:37:24 10:40:46 41° 68° (ENE) 10:44:24 437.505
UWE-3 24 Jul 10:39:39 10:42:13 16° 293° (WNW) 10:44:45 435.000/436.395/437.385
DELFI C3 24 Jul 10:46:36 10:50:30 49° 100° (E) 10:54:23 145.870
UNISAT 6 24 Jul 10:53:07 10:57:45 65° 259° (W) 11:02:20 437.425
ZACube-1 24 Jul 10:55:17 10:58:15 19° 291° (WNW) 11:01:11 437.345
PRISM 24 Jul 11:08:56 11:12:50 45° 260° (W) 11:16:48 437.425
AIST 2D 24 Jul 11:22:06 11:24:54 23° 72° (ENE) 11:27:42 435.315
Oscar 11 24 Jul 11:23:42 11:26:10 15° 293° (WNW) 11:28:37 .
EO-88 24 Jul 11:28:16 11:31:54 73° 284° (WNW) 11:35:31 145.990 - 145.960
DUCHIFAT 1 24 Jul 11:30:05 11:31:44 12° 65° (ENE) 11:33:23 145.980
POLYITAN 1 24 Jul 11:30:09 11:32:43 16° 67° (ENE) 11:35:16 437.675
LO-87 24 Jul 11:37:07 11:38:59 14° 93° (E) 11:40:51 145.935 - 145.965
TIGRISAT 24 Jul 11:38:48 11:42:29 23° 265° (W) 11:46:08 435.000
QB50P2 24 Jul 11:42:10 11:45:34 23° 70° (ENE) 11:48:58 145.880/145.840
FO-29 24 Jul 11:46:05 11:51:43 23° 269° (W) 11:57:35 435.910
NO-84 24 Jul 11:49:01 11:51:58 83° 136° (SE) 11:55:10 435.350 FM
EO-79 24 Jul 11:54:13 11:57:54 29° 71° (ENE) 12:01:35 145.935-145.965
NANOSAT C BR1 24 Jul 11:54:59 11:58:33 27° 70° (ENE) 12:02:07 145.865
M-CUBED/EXP-1 PRIME 24 Jul 12:14:59 12:15:30 10° 265° (W) 12:16:01 437.505
ESTCUBE 1 24 Jul 12:19:41 12:23:43 31° 97° (E) 12:27:45 437.505/2401.250
DELFI C3 24 Jul 12:23:37 12:24:47 11° 294° (WNW) 12:25:58 145.870
AIST 2D 24 Jul 12:55:53 12:58:04 16° 266° (W) 13:00:14 435.315
DUCHIFAT 1 24 Jul 13:02:47 13:06:55 52° 260° (W) 13:11:04 145.980
POLYITAN 1 24 Jul 13:04:07 13:08:08 39° 262° (W) 13:12:08 437.675
BEESAT 3 24 Jul 13:04:26 13:08:09 40° 115° (ESE) 13:11:57 437.485
LO-87 24 Jul 13:09:19 13:12:27 28° 288° (WNW) 13:15:34 145.935 - 145.965
VELOX 1 24 Jul 13:09:38 13:13:10 23° 96° (E) 13:16:40 145.980
Oscar 19 24 Jul 13:13:41 13:17:41 24° 67° (ENE) 13:21:42 437.125/150
QB50P2 24 Jul 13:17:41 13:21:13 25° 264° (W) 13:24:46 145.880/145.840
AO-85 24 Jul 13:23:01 13:27:03 72° 117° (ESE) 13:30:58 145.980
NO-84 24 Jul 13:29:01 13:29:56 11° 332° (NNW) 13:30:52 435.350 FM
EO-79 24 Jul 13:30:29 13:33:39 20° 265° (W) 13:36:48 145.935-145.965
NANOSAT C BR1 24 Jul 13:30:54 13:34:11 22° 265° (W) 13:37:31 145.865
Gurwin Techsat 1B 24 Jul 13:32:46 13:36:55 24° 67° (ENE) 13:41:04 435.225
BUGSAT 1 24 Jul 13:34:47 13:39:02 83° 257° (WSW) 13:43:18 437.445
BEESAT 2 24 Jul 13:42:24 13:46:00 34° 113° (ESE) 13:49:39 435.950
AO-7 24 Jul 13:47:16 13:48:55 11° 47° (NE) 13:50:33 .
PCSat 24 Jul 13:55:09 13:57:56 14° 46° (NE) 14:00:44 145.827
ESTCUBE 1 24 Jul 13:56:53 14:00:18 21° 292° (WNW) 14:03:43 437.505/2401.250
UKube-1 24 Jul 14:02:55 14:05:40 16° 94° (E) 14:08:23 .
SPROUT 24 Jul 14:06:26 14:10:40 62° 284° (WNW) 14:14:50 437.525
50 SAT 24 Jul 14:19:20 14:22:45 64° 101° (E) 14:26:09 437.505
BEESAT 3 24 Jul 14:43:17 14:45:54 17° 311° (NW) 14:48:32 437.485
RS-15 24 Jul 14:44:50 14:52:37 20° 98° (E) 15:00:27 29.354- 29.394
VELOX 1 24 Jul 14:45:44 14:49:33 28° 290° (WNW) 14:53:21 145.980
Oscar 19 24 Jul 14:52:05 14:56:45 36° 262° (W) 15:01:27 437.125/150
DX 1 24 Jul 14:53:14 14:57:38 80° 285° (WNW) 15:02:00 434.975-435.025
ITAMSAT 1 24 Jul 15:03:45 15:07:28 20° 65° (ENE) 15:11:11 435.822/435.867
AO-85 24 Jul 15:07:31 15:07:51 10° 315° (NW) 15:08:11 145.980
Gurwin Techsat 1B 24 Jul 15:11:39 15:16:35 39° 262° (W) 15:21:33 435.225
BEESAT 24 Jul 15:19:20 15:20:30 11° 91° (E) 15:21:40 436.000
BEESAT 2 24 Jul 15:20:56 15:23:50 19° 310° (NW) 15:26:46 435.950
ITUPSAT 1 24 Jul 15:30:40 15:33:21 15° 93° (E) 15:36:01 437.325
AO-7 24 Jul 15:31:46 15:39:50 56° 67° (ENE) 15:47:57 .
PCSat 24 Jul 15:36:35 15:42:02 85° 244° (WSW) 15:47:26 145.827
UKube-1 24 Jul 15:37:47 15:41:46 37° 289° (WNW) 15:45:44 .
O/OREOS (USA 219) 24 Jul 16:22:38 16:27:05 64° 292° (WNW) 16:31:32 437.305
SO-50 24 Jul 16:23:39 16:28:13 77° 60° (ENE) 16:32:47 436.795
MOZHAYETS 4 24 Jul 16:23:56 16:28:17 44° 99° (E) 16:32:38
ITAMSAT 1 24 Jul 16:41:33 16:46:33 46° 260° (W) 16:51:34 435.822/435.867
RS-15 24 Jul 16:51:07 17:03:17 87° 116° (ESE) 17:15:44 29.354- 29.394
BEESAT 24 Jul 16:53:56 16:58:39 65° 286° (WNW) 17:03:20 436.000
CUBESAT XI-V 24 Jul 16:57:25 17:00:42 19° 94° (E) 17:03:58 437.345
ITUPSAT 1 24 Jul 17:06:49 17:11:23 48° 287° (WNW) 17:15:56 437.325
KKS-1 24 Jul 17:12:02 17:14:02 13° 92° (E) 17:16:02 437.445
AO-7 24 Jul 17:25:53 17:32:51 29° 263° (W) 17:39:54 .
DOVE 4 24 Jul 17:34:33 17:38:52 34° 70° (ENE) 17:43:25 437.250
STARS 24 Jul 17:44:17 17:45:40 11° 92° (E) 17:47:02 437.465
XW-2C 24 Jul 17:44:46 17:46:05 12° 67° (ENE) 17:47:25 145.795 - 145.815
NUDT-PHONESAT 24 Jul 17:55:23 17:56:30 11° 67° (ENE) 17:57:35 437.300
MOZHAYETS 4 24 Jul 18:02:18 18:05:03 16° 294° (WNW) 18:07:48
LilacSat-2 24 Jul 18:05:31 18:08:31 23° 71° (ENE) 18:11:31 437.200
KAITUO 1B 24 Jul 18:07:24 18:09:48 17° 69° (ENE) 18:12:11 145.475/437.950
XW-2F 24 Jul 18:20:56 18:24:15 31° 73° (ENE) 18:27:35 145.980 - 146.000
NO-84 24 Jul 18:24:14 18:27:13 21° 36° (NE) 18:30:21 435.350 FM
CUTE-I 24 Jul 18:24:16 18:29:14 40° 71° (ENE) 18:34:14 437.470
CUBESAT XI-V 24 Jul 18:33:50 18:38:08 37° 288° (WNW) 18:42:26 437.345
KKS-1 24 Jul 18:46:30 18:50:50 49° 287° (WNW) 18:55:08 437.445
XW-2D 24 Jul 18:48:43 18:52:28 86° 79° (E) 18:56:14 145.860 - 145.880
YUBILEINY 24 Jul 18:52:02 18:59:56 38° 86° (E) 19:07:49 435.215
XW-2B 24 Jul 18:58:47 19:02:32 72° 260° (W) 19:06:16 145.730 - 145.750
RS-15 24 Jul 19:07:03 19:17:28 31° 322° (NW) 19:27:58 29.354- 29.394
HO-68 24 Jul 19:11:47 19:18:24 42° 67° (ENE) 19:25:01 435.675
DOVE 4 24 Jul 19:12:46 19:16:34 23° 267° (W) 19:20:34 437.250
XW-2C 24 Jul 19:16:20 19:19:53 40° 261° (W) 19:23:26 145.795 - 145.815
STARS 24 Jul 19:17:59 19:22:17 54° 286° (WNW) 19:26:33 437.465
XW-2A 24 Jul 19:21:48 19:23:33 14° 69° (ENE) 19:25:19 145.665 - 145.685
CUTE 1.7 + AOD 2 24 Jul 19:23:45 19:27:25 30° 72° (ENE) 19:31:07 437.475
NUDT-PHONESAT 24 Jul 19:26:30 19:29:59 40° 261° (W) 19:33:28 437.300
STRAND 1 24 Jul 19:33:01 19:34:23 11° 91° (E) 19:35:46 437.568
SEEDS 24 Jul 19:37:18 19:40:46 27° 71° (ENE) 19:44:16 437.485
LilacSat-2 24 Jul 19:39:57 19:42:42 19° 265° (W) 19:45:29 437.200
KAITUO 1B 24 Jul 19:40:28 19:43:34 26° 263° (W) 19:46:42 145.475/437.950
XW-2F 24 Jul 19:56:30 19:58:26 14° 267° (W) 20:00:22 145.980 - 146.000
UWE-3 24 Jul 19:56:35 20:00:10 23° 70° (ENE) 20:03:43 435.000/436.395/437.385
Tancredo 1 24 Jul 19:58:39 20:01:02 23° 131° (SE) 20:03:25 437.200
NO-84 24 Jul 20:01:00 20:04:55 52° 230° (SW) 20:09:03 435.350 FM
CUTE-I 24 Jul 20:05:14 20:09:23 22° 265° (W) 20:13:32 437.470
ZACube-1 24 Jul 20:12:12 20:15:14 18° 68° (ENE) 20:18:14 437.345
nSIGHT-1 24 Jul 20:12:17 20:13:23 11° 127° (SE) 20:14:28 .
AAUSAT CUBESAT 2 24 Jul 20:22:07 20:25:56 39° 73° (ENE) 20:29:47 437.432
CUBEBUG 2 24 Jul 20:32:26 20:37:10 81° 258° (WSW) 20:41:49 437.445
Oscar 11 24 Jul 20:38:52 20:42:17 23° 70° (ENE) 20:45:40 .
YUBILEINY 24 Jul 20:48:19 20:56:32 42° 284° (WNW) 21:04:48 435.215
AO-73 24 Jul 20:51:22 20:55:35 44° 74° (ENE) 20:59:44 145.935
XW-2A 24 Jul 20:53:08 20:56:01 26° 263° (W) 20:58:55 145.665 - 145.685
HO-68 24 Jul 20:59:45 21:06:06 34° 263° (W) 21:12:31 435.675
CUTE 1.7 + AOD 2 24 Jul 21:00:21 21:03:16 18° 266° (W) 21:06:12 437.475
ISS 24 Jul 21:03:42 21:06:47 43° 134° (SE) 21:09:54 437.550
STRAND 1 24 Jul 21:08:56 21:14:02 71° 285° (WNW) 21:19:05 437.568
SEEDS 24 Jul 21:13:18 21:16:24 20° 265° (W) 21:19:32 437.485
BEESAT 3 24 Jul 21:24:56 21:26:42 12° 46° (NE) 21:28:25 437.485
RS-15 24 Jul 21:29:28 21:35:59 15° 357° (N) 21:42:26 29.354- 29.394
DELFI C3 24 Jul 21:30:01 21:32:52 19° 69° (ENE) 21:35:43 145.870
UWE-3 24 Jul 21:32:25 21:36:26 29° 263° (W) 21:40:24 435.000/436.395/437.385
Tancredo 1 24 Jul 21:33:53 21:36:21 24° 327° (NNW) 21:38:51 437.200
nSIGHT-1 24 Jul 21:46:14 21:49:25 55° 321° (NW) 21:52:36 .
ZACube-1 24 Jul 21:47:07 21:51:14 36° 262° (W) 21:55:17 437.345
AO-85 24 Jul 21:56:09 21:59:52 29° 54° (NE) 22:03:47 145.980
AAUSAT CUBESAT 2 24 Jul 21:59:31 22:01:32 13° 268° (W) 22:03:34 437.432
EO-88 24 Jul 22:03:28 22:06:37 28° 73° (ENE) 22:09:47 145.990 - 145.960
BEESAT 2 24 Jul 22:03:59 22:05:20 11° 45° (NE) 22:06:41 435.950
Oscar 11 24 Jul 22:14:41 22:18:16 25° 264° (W) 22:21:52 .
AO-73 24 Jul 22:29:38 22:31:58 14° 267° (W) 22:34:17 145.935
ISS 24 Jul 22:40:57 22:43:24 19° 330° (NNW) 22:45:51 437.550
UNISAT 6 24 Jul 22:47:52 22:51:40 30° 97° (E) 22:55:24 437.425
PRISM 24 Jul 22:52:51 22:56:26 27° 97° (E) 22:59:59 437.425
FO-29 24 Jul 22:57:32 23:04:37 75° 102° (ESE) 23:10:48 435.910
BEESAT 3 24 Jul 23:00:42 23:04:38 59° 243° (WSW) 23:08:28 437.485
DELFI C3 24 Jul 23:04:10 23:07:26 25° 264° (W) 23:10:45 145.870
ESTCUBE 1 24 Jul 23:17:06 23:20:28 21° 68° (ENE) 23:23:51 437.505/2401.250
nSIGHT-1 24 Jul 23:25:47 23:26:24 10° 339° (NNW) 23:27:01 .
JUGNU 24 Jul 23:30:42 23:32:08 11° 167° (SSE) 23:33:33 437.505
TIGRISAT 24 Jul 23:31:52 23:36:11 87° 289° (WNW) 23:40:25 435.000
AO-85 24 Jul 23:36:34 23:40:09 25° 247° (WSW) 23:43:55 145.980
EO-88 24 Jul 23:38:20 23:40:19 14° 266° (W) 23:42:19 145.990 - 145.960
BEESAT 2 24 Jul 23:39:30 23:43:32 70° 244° (WSW) 23:47:31 435.950
LO-87 24 Jul 23:41:51 23:45:26 67° 76° (ENE) 23:49:04 145.935 - 145.965
RS-15 24 Jul 23:45:16 23:54:57 26° 33° (NNE) 00:04:16 29.354- 29.394
M-CUBED/EXP-1 PRIME 24 Jul 23:51:30 23:56:03 55° 105° (ESE) 00:00:36 437.505
VELOX 1 25 Jul 00:05:11 00:07:45 15° 66° (ENE) 00:10:20 145.980
